Location: Chircca
(13.7944°S, 72.0608°W)
Time: 05:32:17
(UTC+00:00)

Cosmos 1674 - Pass Details

Date: 14 July 2020
Orbit: 493 x 519 km, 82.5° (Epoch: 14 August)

Event Time Altitude Azimuth Distance (km) Brightness Sun altitude
Rises 10:34:13 0° 347° (NNW) 2,556 6.3 -9.6°
Reaches altitude 10° 10:36:21 10° 341° (NNW) 1,681 5.3 -9.1°
Maximum altitude 10:39:55 50° 265° (W) 637 2.8 -8.3°
Drops below altitude 10° 10:43:33 10° 189° (S) 1,702 5.0 -7.5°
Sets 10:45:43 0° 183° (S) 2,593 6.0 -7.0°
